Location: Góry Miechowskie
(50.3599°N, 20.1803°E)
Time: 22:01:18
(UTC+00:00)

Tiros 1 despin weight - Pass Details

Date: 20 September 2024
Orbit: 572 x 614 km, 48.2° (Epoch: 12 October)

Event Time Altitude Azimuth Distance (km) Brightness Sun altitude
Rises 01:13:30 0° 243° (WSW) 2,855 - -28.3°
Reaches altitude 10° 01:15:49 10° 238° (WSW) 1,959 - -28.0°
Maximum altitude 01:20:11 51° 163° (SSE) 776 - -27.5°
Exits shadow 01:21:41 35° 110° (ESE) 994 ? -27.3°
Drops below altitude 10° 01:24:36 10° 88° (E) 1,978 ? -27.0°
Sets 01:26:57 0° 83° (E) 2,887 ? -26.7°
